Flag for Netherlands Weather past 2 weeks in Amersfoort, Netherlands

Now
48 °F

Partly sunny.


Feels Like: 46 °F
Forecast: 39 / 56 °F
Wind: 6 mph from West

Location: Deelen

Current Time: Apr 28, 2015 at 1:28:05 PM

Latest Report: Apr 28, 2015 at 12:55 PM


Visibility: N/A

Pressure: 29.95 "Hg

Humidity: 71%

Dew point: 39 °F

Location of AmersfoortLocation

Historic Weather in Amersfoort — Graph

°F

Amersfoort temperature yesterday

Maximum temperature yesterday: 54 °F (at 12:55 PM)
Minimum temperature yesterday: 36 °F (at 11:55 PM)
Average temperature yesterday: 48 °F

Past Weeks' High & Low Weather Summary

 TemperatureHumidityPressure
High73 °F (Apr 15, 3:55 PM)100% (Apr 16, 3:25 AM)30.48 "Hg (Apr 16, 3:25 AM)
Low25 °F (Apr 28, 6:25 AM)28% (Apr 21, 1:55 PM)29.68 "Hg (Apr 26, 5:25 AM)
Average49 °F70%30.10 "Hg
* Reported Apr 13 12:25 PM — Apr 28 12:25 PM, Amersfoort, Weather by CustomWeather, © 2015

Note: Actual official high and low records may vary slightly from our data, if they occured in-between our weather recording intervals... More about our weather records

Advertising

Amersfoort weather history for previous 24 hours

 ConditionsComfort  
Time TempWeatherWind HumidityBarometerVisibility
12:25 PM
Tue, Apr 28
45 °FPartly sunny.5 mph81%29.95 "HgN/A
11:55 AM50 °FBroken clouds.13 mph54%29.95 "HgN/A
11:25 AM50 °FPassing clouds.12 mph62%29.95 "HgN/A
10:55 AM48 °FBroken clouds.12 mph62%29.95 "HgN/A
10:25 AM46 °FMostly cloudy.13 mph62%29.92 "HgN/A
9:55 AM45 °FMostly cloudy.10 mph66%29.92 "HgN/A
9:25 AM43 °FMostly cloudy.9 mph71%29.92 "HgN/A
8:55 AM43 °FOvercast.9 mph71%29.92 "HgN/A
8:25 AM39 °FOvercast.2 mph75%29.92 "HgN/A
7:55 AM36 °FPassing clouds.3 mph81%29.92 "HgN/A
7:25 AM30 °FPassing clouds.1 mph86%29.92 "HgN/A
6:55 AM27 °FPassing clouds.2 mph86%29.89 "HgN/A
6:25 AM25 °FPassing clouds.1 mph93%29.89 "HgN/A
5:55 AM27 °FPassing clouds.2 mph93%29.89 "HgN/A
5:25 AM27 °FPassing clouds.2 mph93%29.89 "HgN/A
4:55 AM27 °FPassing clouds.No wind93%29.89 "HgN/A
4:25 AM27 °FPassing clouds.1 mph93%29.89 "HgN/A
3:55 AM27 °FPassing clouds.3 mph93%29.89 "HgN/A
3:25 AM28 °FPassing clouds.1 mph86%29.89 "HgN/A
2:55 AM28 °FPassing clouds.1 mph93%29.89 "HgN/A
2:25 AM28 °FPassing clouds.No wind93%29.89 "HgN/A
1:55 AM30 °FPassing clouds.No wind86%29.89 "HgN/A
1:25 AM32 °FClear.1 mph87%29.89 "HgN/A
12:55 AM32 °FChilly.2 mph87%29.86 "HgN/A
12:25 AM32 °FPassing clouds.5 mph87%29.86 "HgN/A
11:55 PM
Mon, Apr 27
36 °FChilly.6 mph75%29.86 "HgN/A
11:25 PM37 °FPassing clouds.6 mph70%29.86 "HgN/A
10:55 PM39 °FChilly.7 mph70%29.86 "HgN/A
10:25 PM41 °FClear.6 mph66%29.86 "HgN/A
9:55 PM43 °FPassing clouds.7 mph61%29.86 "HgN/A
9:25 PM45 °FQuite cool.9 mph57%29.86 "HgN/A
8:55 PM46 °FPassing clouds.12 mph53%29.83 "HgN/A
8:25 PM50 °FPartly sunny.10 mph47%29.83 "HgN/A
7:55 PM50 °FPartly sunny.13 mph43%29.80 "HgN/A
7:25 PM50 °FHigh level clouds.13 mph47%29.80 "HgN/A
6:55 PM50 °FPassing clouds.15 mph47%29.80 "HgN/A
6:25 PM52 °FCool.16 mph47%29.80 "HgN/A
5:55 PM54 °FPartly sunny.15 mph44%29.77 "HgN/A
5:25 PM54 °FBroken clouds.14 mph44%29.77 "HgN/A
4:55 PM54 °FBroken clouds.13 mph47%29.77 "HgN/A
4:25 PM52 °FOvercast.12 mph50%29.80 "HgN/A
3:55 PM54 °FBroken clouds.13 mph47%29.80 "HgN/A
3:25 PM54 °FBroken clouds.16 mph44%29.80 "HgN/A
2:55 PM54 °FPartly sunny.14 mph44%29.80 "HgN/A
2:25 PM54 °FPartly sunny.14 mph44%29.77 "HgN/A
1:55 PM54 °FPassing clouds.14 mph44%29.77 "HgN/A
1:25 PM54 °FPassing clouds.15 mph44%29.77 "HgN/A
Weather by CustomWeather, © 2015

See weather overviewHow to use our weather pages